EW6420 Weather Reports


Display with metric or nautical units.
time (UTC)temp
F
wind
direction
speed
MPH
gust
MPH
rain 1hr
in
rain 24hr
in
rain mn
in
humidity
%
barometer
mb
20260506113001 53 95 0.0 0.0 0.00 0.00 0.00 88 1018.3
20260506111503 53 95 0.0 0.0 0.00 0.00 0.00 87 1018.2
20260506110004 54 95 0.0 0.0 0.00 0.00 0.00 85 1018.2
20260506104503 54 95 0.0 0.0 0.00 0.00 0.00 84 1017.9
20260506103005 54 95 0.0 0.0 0.00 0.00 0.00 83 1017.8
20260506101503 54 95 0.0 1.0 0.00 0.00 0.00 83 1017.5
20260506100002 54 95 0.0 0.0 0.00 0.00 0.00 84 1017.3
20260506094501 54 95 0.0 0.0 0.00 0.00 0.00 84 1017.3
20260506091501 55 95 0.0 0.0 0.00 0.00 0.00 83 1017.2
20260506084501 55 95 0.0 0.0 0.00 0.00 0.00 83 1017.1
20260506083002 55 95 0.0 0.0 0.00 0.00 0.00 82 1017.0
20260506081501 55 95 0.0 0.0 0.00 0.00 0.00 82 1017.0
20260506071504 55 95 0.0 0.0 0.00 0.00 0.00 83 1016.6
20260506061504 56 95 0.0 0.0 0.00 0.00 0.00 83 1015.9
20260506044503 58 95 0.0 0.0 0.00 0.00 0.00 81 1015.5
20260506043005 58 95 0.0 0.0 0.00 0.00 0.00 80 1015.5
20260506041504 59 95 0.0 0.0 0.00 0.00 0.00 78 1015.3
20260506040005 60 95 0.0 0.0 0.00 0.00 0.00 77 1015.3
20260506033005 61 95 0.0 0.0 0.00 0.00 0.00 74 1014.8
20260506031504 62 95 0.0 0.0 0.00 0.00 0.00 73 1014.6
20260506030006 62 95 0.0 0.0 0.00 0.00 0.00 72 1014.5
20260506024503 63 95 0.0 0.0 0.00 0.00 0.00 72 1014.5
20260506023003 63 95 0.0 1.0 0.00 0.00 0.00 70 1014.5
20260506021504 63 95 0.0 2.0 0.00 0.00 0.00 69 1014.5
20260506020004 64 86 0.0 2.0 0.00 0.00 0.00 68 1014.4
20260506014504 64 86 1.0 2.0 0.00 0.00 0.00 67 1014.3
20260506010006 65 85 0.0 3.0 0.00 0.00 0.00 65 1014.4
20260506004503 65 87 0.0 2.0 0.00 0.00 0.00 64 1014.4
20260506003004 66 98 0.0 2.0 0.00 0.00 0.00 64 1014.5
20260506001504 66 98 0.0 2.0 0.00 0.00 0.00 65 1014.5
20260506000004 65 98 0.0 2.0 0.00 0.00 0.00 66 1014.6
20260505234503 65 167 0.0 2.0 0.00 0.00 0.00 65 1014.8
20260505233003 64 303 0.0 2.0 0.00 0.00 0.00 66 1014.9
20260505230004 64 235 0.0 2.0 0.00 0.00 0.00 66 1015.1
20260505224502 64 235 0.0 3.0 0.00 0.00 0.00 66 1015.2
20260505223003 64 150 0.0 2.0 0.00 0.00 0.00 66 1015.5
20260505214501 61 160 0.0 2.0 0.00 0.00 0.00 71 1015.8
20260505213004 61 113 0.0 2.0 0.00 0.00 0.00 71 1015.9
20260505210006 60 172 0.0 2.0 0.00 0.00 0.00 72 1016.0
20260505204503 59 173 0.0 2.0 0.00 0.00 0.00 73 1016.1
20260505203003 59 185 0.0 2.0 0.00 0.00 0.00 74 1016.1
20260505201502 58 185 0.0 2.0 0.00 0.00 0.00 75 1016.0
20260505200004 58 185 0.0 2.0 0.00 0.00 0.00 75 1016.1
20260505194503 58 185 0.0 2.0 0.00 0.00 0.00 76 1016.1
20260505193004 57 185 0.0 2.0 0.00 0.00 0.00 77 1016.1
20260505191502 57 185 0.0 2.0 0.00 0.00 0.00 77 1016.1
20260505190005 57 83 0.0 2.0 0.00 0.00 0.00 77 1016.2
20260505184504 57 83 0.0 2.0 0.00 0.00 0.00 77 1016.2
20260505183005 56 83 0.0 2.0 0.00 0.00 0.00 78 1016.2
20260505180005 56 77 0.0 2.0 0.00 0.00 0.00 79 1016.1
20260505174503 56 77 0.0 2.0 0.00 0.00 0.00 78 1016.0
20260505171503 55 82 0.0 2.0 0.00 0.00 0.00 79 1015.8
20260505170005 55 82 0.0 2.0 0.00 0.00 0.00 79 1015.8
20260505164503 55 82 0.0 0.0 0.00 0.00 0.00 80 1015.8
20260505163005 55 82 0.0 1.0 0.00 0.00 0.00 80 1015.7
20260505151503 55 79 0.0 2.0 0.00 0.00 0.00 82 1015.3
20260505124501 54 177 0.0 0.0 0.00 0.00 0.00 83 1014.0
20260505123002 54 177 0.0 0.0 0.00 0.00 0.00 83 1014.0
20260505121502 54 177 0.0 0.0 0.00 0.00 0.00 83 1013.9
20260505120003 54 177 0.0 2.0 0.00 0.00 0.00 83 1013.9
20260505114502 54 177 0.0 0.0 0.00 0.00 0.00 83 1013.8